EN

Hourly Weather Byszowka

Today, 10 May, Monday

Time Temperature Precipitation Wind Pressure Humidity
00:00 +8°C° 0 mm 4 mps 744 mmHg 83%
01:00 +9°C° 0 mm 3 mps 744 mmHg 84%
02:00 +8°C° 0 mm 4 mps 743 mmHg 84%
03:00 +7°C° 0 mm 4 mps 743 mmHg 85%
04:00 +7°C° 0 mm 4 mps 743 mmHg 85%
05:00 +9°C° 0 mm 5 mps 743 mmHg 79%
06:00 +10°C° 0 mm 5 mps 743 mmHg 74%
07:00 +13°C° 0 mm 6 mps 744 mmHg 68%
08:00 +15°C° 0 mm 7 mps 743 mmHg 64%
09:00 +17°C° 0 mm 7 mps 743 mmHg 59%
10:00 +18°C° 0 mm 7 mps 743 mmHg 55%
11:00 +20°C° 0 mm 7 mps 743 mmHg 53%
12:00 +21°C° 0 mm 7 mps 743 mmHg 51%
13:00 +22°C° 0 mm 7 mps 743 mmHg 50%
14:00 +22°C° 0 mm 7 mps 743 mmHg 52%
15:00 +22°C° 0 mm 6 mps 742 mmHg 55%
16:00 +22°C° 0 mm 6 mps 742 mmHg 58%
17:00 +20°C° 0 mm 5 mps 742 mmHg 64%
18:00 +17°C° 0 mm 5 mps 743 mmHg 70%
19:00 +15°C° 0 mm 4 mps 743 mmHg 77%
20:00 +14°C° 0 mm 4 mps 743 mmHg 80%
21:00 +14°C° 0 mm 4 mps 743 mmHg 84%
22:00 +13°C° 0 mm 4 mps 743 mmHg 87%
23:00 +12°C° 0 mm 4 mps 743 mmHg 88%

Tomorrow, 11 May, Tuesday

Time Temperature Precipitation Wind Pressure Humidity
00:00 +11°C° 0 mm 4 mps 742 mmHg 89%
01:00 +11°C° 0 mm 4 mps 742 mmHg 89%
02:00 +11°C° 0 mm 4 mps 742 mmHg 89%
03:00 +10°C° 0 mm 4 mps 742 mmHg 89%
04:00 +10°C° 0 mm 4 mps 742 mmHg 89%
05:00 +10°C° 0 mm 5 mps 742 mmHg 83%
06:00 +13°C° 0 mm 6 mps 742 mmHg 78%
07:00 +15°C° 0 mm 6 mps 742 mmHg 72%
08:00 +16°C° 0 mm 7 mps 742 mmHg 67%
09:00 +18°C° 0 mm 7 mps 742 mmHg 62%
10:00 +21°C° 0 mm 7 mps 741 mmHg 57%
11:00 +22°C° 0 mm 7 mps 741 mmHg 55%
12:00 +22°C° 0 mm 7 mps 741 mmHg 54%
13:00 +23°C° 0 mm 7 mps 741 mmHg 52%
14:00 +23°C° 0 mm 7 mps 741 mmHg 55%
15:00 +22°C° 0 mm 7 mps 740 mmHg 58%
16:00 +22°C° 0 mm 7 mps 740 mmHg 61%
17:00 +20°C° 0 mm 7 mps 740 mmHg 63%
18:00 +18°C° 0 mm 7 mps 740 mmHg 66%
19:00 +16°C° 0 mm 7 mps 740 mmHg 68%
20:00 +15°C° 0 mm 7 mps 740 mmHg 66%
21:00 +14°C° 0 mm 7 mps 740 mmHg 64%
22:00 +14°C° 0 mm 7 mps 740 mmHg 62%
23:00 +12°C° 0 mm 7 mps 739 mmHg 60%

Day after tomorrow, 12 May, Wednesday

Time Temperature Precipitation Wind Pressure Humidity
00:00 +13°C° 0 mm 6 mps 739 mmHg 58%
01:00 +11°C° 0 mm 6 mps 739 mmHg 57%
02:00 +11°C° 0 mm 6 mps 739 mmHg 59%
03:00 +11°C° 0 mm 6 mps 738 mmHg 62%
04:00 +10°C° 0 mm 6 mps 738 mmHg 64%
05:00 +11°C° 0 mm 6 mps 738 mmHg 66%
06:00 +14°C° 0 mm 6 mps 738 mmHg 67%
07:00 +15°C° 0 mm 7 mps 738 mmHg 69%
08:00 +16°C° 0 mm 7 mps 738 mmHg 66%
09:00 +18°C° 0 mm 8 mps 738 mmHg 63%
10:00 +21°C° 0 mm 8 mps 738 mmHg 61%
11:00 +21°C° 0 mm 8 mps 738 mmHg 59%
12:00 +21°C° 0 mm 8 mps 738 mmHg 58%
13:00 +21°C° 0 mm 9 mps 737 mmHg 57%
14:00 +20°C° 0 mm 8 mps 737 mmHg 59%
15:00 +18°C° 0 mm 8 mps 737 mmHg 61%
16:00 +18°C° 0 mm 7 mps 737 mmHg 63%
17:00 +16°C° 0 mm 7 mps 737 mmHg 66%
18:00 +15°C° 0 mm 6 mps 736 mmHg 68%
19:00 +13°C° 0 mm 5 mps 736 mmHg 71%
20:00 +12°C° 0 mm 5 mps 736 mmHg 73%
21:00 +10°C° 0 mm 5 mps 736 mmHg 75%
22:00 +9°C° 0 mm 5 mps 736 mmHg 77%
23:00 +8°C° 0 mm 5 mps 735 mmHg 79%

13 May, Thursday

Time Temperature Precipitation Wind Pressure Humidity
00:00 +8°C° 0 mm 5 mps 735 mmHg 80%
01:00 +7°C° 0 mm 5 mps 734 mmHg 82%
02:00 +7°C° 0 mm 4 mps 734 mmHg 84%
03:00 +6°C° 0 mm 4 mps 734 mmHg 86%
04:00 +7°C° 0 mm 3 mps 733 mmHg 88%
05:00 +8°C° 0 mm 3 mps 733 mmHg 84%
06:00 +8°C° 0 mm 4 mps 733 mmHg 80%
07:00 +11°C° 0 mm 4 mps 733 mmHg 76%
08:00 +12°C° 0 mm 3 mps 733 mmHg 76%
09:00 +13°C° 0 mm 3 mps 733 mmHg 75%
10:00 +15°C° 0 mm 2 mps 732 mmHg 74%
11:00 +16°C° 0.2 mm 2 mps 732 mmHg 75%
12:00 +16°C° 0.2 mm 2 mps 732 mmHg 75%
13:00 +17°C° 0.2 mm 2 mps 732 mmHg 76%
14:00 +17°C° 0.6 mm 3 mps 732 mmHg 76%
15:00 +17°C° 0.6 mm 3 mps 732 mmHg 77%
16:00 +17°C° 0.6 mm 3 mps 732 mmHg 77%
17:00 +16°C° 0.5 mm 3 mps 732 mmHg 82%
18:00 +14°C° 0.5 mm 3 mps 732 mmHg 87%
19:00 +13°C° 0.5 mm 3 mps 732 mmHg 92%
20:00 +13°C° 0.2 mm 3 mps 732 mmHg 93%
21:00 +13°C° 0.2 mm 3 mps 732 mmHg 94%
22:00 +12°C° 0.2 mm 3 mps 732 mmHg 95%
23:00 +12°C° 0 mm 3 mps 732 mmHg 94%

14 May, Friday

Time Temperature Precipitation Wind Pressure Humidity
00:00 +12°C° 0 mm 3 mps 732 mmHg 94%
01:00 +12°C° 0 mm 3 mps 732 mmHg 94%
02:00 +12°C° 0 mm 2 mps 733 mmHg 94%
03:00 +12°C° 0 mm 2 mps 733 mmHg 95%
04:00 +12°C° 0 mm 2 mps 733 mmHg 95%
05:00 +12°C° 0 mm 2 mps 733 mmHg 93%
06:00 +13°C° 0 mm 2 mps 733 mmHg 92%
07:00 +14°C° 0 mm 2 mps 733 mmHg 90%
08:00 +14°C° 0.1 mm 2 mps 734 mmHg 89%
09:00 +14°C° 0.1 mm 2 mps 734 mmHg 87%
10:00 +14°C° 0.1 mm 2 mps 734 mmHg 86%
11:00 +14°C° 0.1 mm 2 mps 735 mmHg 85%
12:00 +14°C° 0.1 mm 3 mps 735 mmHg 85%
13:00 +14°C° 0.1 mm 3 mps 735 mmHg 84%
14:00 +14°C° 0.1 mm 3 mps 735 mmHg 85%
15:00 +13°C° 0.1 mm 3 mps 735 mmHg 86%
16:00 +13°C° 0.1 mm 3 mps 735 mmHg 87%
17:00 +13°C° 0.1 mm 3 mps 736 mmHg 88%
18:00 +13°C° 0.1 mm 3 mps 736 mmHg 90%
19:00 +12°C° 0.1 mm 3 mps 736 mmHg 91%
20:00 +12°C° 0.1 mm 3 mps 736 mmHg 91%
21:00 +13°C° 0.1 mm 2 mps 736 mmHg 91%
22:00 +13°C° 0.1 mm 2 mps 736 mmHg 92%
23:00 +12°C° 0.2 mm 2 mps 736 mmHg 92%

15 May, Saturday

Time Temperature Precipitation Wind Pressure Humidity
00:00 +12°C° 0.2 mm 2 mps 737 mmHg 93%
01:00 +11°C° 0.2 mm 3 mps 737 mmHg 94%
02:00 +11°C° 0.2 mm 3 mps 737 mmHg 95%
03:00 +11°C° 0.2 mm 3 mps 737 mmHg 95%
04:00 +11°C° 0.2 mm 3 mps 737 mmHg 95%
05:00 +11°C° 0 mm 3 mps 737 mmHg 94%
06:00 +11°C° 0 mm 3 mps 738 mmHg 93%
07:00 +11°C° 0 mm 3 mps 738 mmHg 91%
08:00 +12°C° 0 mm 3 mps 738 mmHg 89%
09:00 +12°C° 0 mm 3 mps 739 mmHg 86%
10:00 +14°C° 0 mm 2 mps 739 mmHg 84%
11:00 +14°C° 0.2 mm 2 mps 739 mmHg 79%
12:00 +15°C° 0.2 mm 2 mps 739 mmHg 75%
13:00 +16°C° 0.2 mm 2 mps 739 mmHg 71%
14:00 +17°C° 0.3 mm 3 mps 739 mmHg 70%
15:00 +17°C° 0.3 mm 3 mps 739 mmHg 69%
16:00 +17°C° 0.3 mm 4 mps 739 mmHg 68%
17:00 +16°C° 0.1 mm 3 mps 739 mmHg 74%
18:00 +13°C° 0.1 mm 3 mps 739 mmHg 80%
19:00 +13°C° 0.1 mm 2 mps 739 mmHg 86%
20:00 +12°C° 0 mm 2 mps 739 mmHg 88%
21:00 +10°C° 0 mm 2 mps 739 mmHg 89%
22:00 +9°C° 0 mm 2 mps 739 mmHg 91%
23:00 +9°C° 0 mm 2 mps 739 mmHg 91%
Show more

We Need Your Consent

Meteoprog and our Service Providers may store and access personal data such as cookies, device identifiers or other similar technologies on your device and process such data to personalise content and ads, as well as provide social media features and to analyse the traffic.

  • Store and/or access information on your device

    Cookies, device identifiers or other information can be stored or accessed on your device for the purposes indicated above.

  • Personalised ads and content, ad and content measurement, audience insights, and products development

    Ads and content can be personalised based on a profile. More data can be added to better personalise ads and content. Ad and content performance can be measured. Insights about the audience who saw the ads and content can be derived. Such data can be used to develop or improve user’s experience, systems and software.

By clicking ‘I Agree’ you will allow the use of indicated cookies, device identifiers, web beacons or other similar technologies. Your settings can be changed in the browser on your device.

For certain purposes, legitimate interests may be relied on, rather than consent. You can read more about this in our Privacy and Cookie Policy.